Year,Month,Day,Hour,Minute,Value (Times are PST for temperature in C)
2020,04,11,00,00,5.20
2020,04,11,00,01,5.20
2020,04,11,00,02,5.20
2020,04,11,00,03,5.20
2020,04,11,00,04,5.20
2020,04,11,00,05,5.20
2020,04,11,00,06,5.10
2020,04,11,00,07,5.10
2020,04,11,00,08,5.10
2020,04,11,00,09,5.10
2020,04,11,00,10,5.10
2020,04,11,00,11,5.10
2020,04,11,00,12,5.10
2020,04,11,00,13,5.20
2020,04,11,00,14,5.20
2020,04,11,00,15,5.20
2020,04,11,00,16,5.20
2020,04,11,00,17,5.20
2020,04,11,00,18,5.20
2020,04,11,00,19,5.10
2020,04,11,00,20,5.10
2020,04,11,00,21,5.10
2020,04,11,00,22,5.10
2020,04,11,00,23,5.10
2020,04,11,00,24,5.00
2020,04,11,00,25,5.00
2020,04,11,00,26,4.90
2020,04,11,00,27,4.90
2020,04,11,00,28,4.90
2020,04,11,00,29,4.90
2020,04,11,00,30,4.90
2020,04,11,00,31,4.90
2020,04,11,00,32,4.80
2020,04,11,00,33,4.90
2020,04,11,00,34,4.80
2020,04,11,00,35,4.90
2020,04,11,00,36,4.90
2020,04,11,00,37,4.90
2020,04,11,00,38,4.90
2020,04,11,00,39,4.90
2020,04,11,00,40,4.90
2020,04,11,00,41,4.90
2020,04,11,00,42,4.90
2020,04,11,00,43,4.80
2020,04,11,00,44,4.80
2020,04,11,00,45,4.80
2020,04,11,00,46,4.80
2020,04,11,00,47,4.80
2020,04,11,00,48,4.80
2020,04,11,00,49,4.80
2020,04,11,00,50,4.80
2020,04,11,00,51,4.90
2020,04,11,00,52,4.90
2020,04,11,00,53,4.90
2020,04,11,00,54,4.90
2020,04,11,00,55,4.90
2020,04,11,00,56,4.90
2020,04,11,00,57,4.90
2020,04,11,00,58,4.90
2020,04,11,00,59,4.80
2020,04,11,01,00,4.80
2020,04,11,01,01,4.80
2020,04,11,01,02,4.80
2020,04,11,01,03,4.80
2020,04,11,01,04,4.80
2020,04,11,01,05,4.80
2020,04,11,01,06,4.80
2020,04,11,01,07,4.80
2020,04,11,01,08,4.80
2020,04,11,01,09,4.80
2020,04,11,01,10,4.80
2020,04,11,01,11,4.80
2020,04,11,01,12,4.80
2020,04,11,01,13,4.80
2020,04,11,01,14,4.80
2020,04,11,01,15,4.80
2020,04,11,01,16,4.80
2020,04,11,01,17,4.80
2020,04,11,01,18,4.80
2020,04,11,01,19,4.80
2020,04,11,01,20,4.80
2020,04,11,01,21,4.80
2020,04,11,01,22,4.70
2020,04,11,01,23,4.70
2020,04,11,01,24,4.70
2020,04,11,01,25,4.60
2020,04,11,01,26,4.60
2020,04,11,01,27,4.60
2020,04,11,01,28,4.60
2020,04,11,01,29,4.50
2020,04,11,01,30,4.50
2020,04,11,01,31,4.40
2020,04,11,01,32,4.40
2020,04,11,01,33,4.40
2020,04,11,01,34,4.40
2020,04,11,01,35,4.40
2020,04,11,01,36,4.40
2020,04,11,01,37,4.40
2020,04,11,01,38,4.30
2020,04,11,01,39,4.30
2020,04,11,01,40,4.30
2020,04,11,01,41,4.40
2020,04,11,01,42,4.40
2020,04,11,01,43,4.40
2020,04,11,01,44,4.40
2020,04,11,01,45,4.40
2020,04,11,01,46,4.40
2020,04,11,01,47,4.40
2020,04,11,01,48,4.40
2020,04,11,01,49,4.40
2020,04,11,01,50,4.40
2020,04,11,01,51,4.40
2020,04,11,01,52,4.50
2020,04,11,01,53,4.50
2020,04,11,01,54,4.50
2020,04,11,01,55,4.60
2020,04,11,01,56,4.60
2020,04,11,01,57,4.70
2020,04,11,01,58,4.70
2020,04,11,01,59,4.70
2020,04,11,02,00,4.70
2020,04,11,02,01,4.70
2020,04,11,02,02,4.70
2020,04,11,02,03,4.70
2020,04,11,02,04,4.70
2020,04,11,02,05,4.70
2020,04,11,02,06,4.70
2020,04,11,02,07,4.60
2020,04,11,02,08,4.60
2020,04,11,02,09,4.60
2020,04,11,02,10,4.60
2020,04,11,02,11,4.60
2020,04,11,02,12,4.60
2020,04,11,02,13,4.60
2020,04,11,02,14,4.50
2020,04,11,02,15,4.50
2020,04,11,02,16,4.60
2020,04,11,02,17,4.60
2020,04,11,02,18,4.60
2020,04,11,02,19,4.60
2020,04,11,02,20,4.60
2020,04,11,02,21,4.60
2020,04,11,02,22,4.70
2020,04,11,02,23,4.70
2020,04,11,02,24,4.70
2020,04,11,02,25,4.80
2020,04,11,02,26,4.80
2020,04,11,02,27,4.80
2020,04,11,02,28,4.80
2020,04,11,02,29,4.90
2020,04,11,02,30,4.90
2020,04,11,02,31,4.90
2020,04,11,02,32,4.90
2020,04,11,02,33,5.00
2020,04,11,02,34,5.00
2020,04,11,02,35,5.00
2020,04,11,02,36,5.00
2020,04,11,02,37,4.90
2020,04,11,02,38,4.90
2020,04,11,02,39,4.90
2020,04,11,02,40,4.90
2020,04,11,02,41,4.80
2020,04,11,02,42,4.80
2020,04,11,02,43,4.80
2020,04,11,02,44,4.80
2020,04,11,02,45,4.80
2020,04,11,02,46,4.80
2020,04,11,02,47,4.80
2020,04,11,02,48,4.80
2020,04,11,02,49,4.80
2020,04,11,02,50,4.80
2020,04,11,02,51,4.80
2020,04,11,02,52,4.80
2020,04,11,02,53,4.80
2020,04,11,02,54,4.80
2020,04,11,02,55,4.80
2020,04,11,02,56,4.70
2020,04,11,02,57,4.70
2020,04,11,02,58,4.70
2020,04,11,02,59,4.70
2020,04,11,03,00,4.70
2020,04,11,03,01,4.70
2020,04,11,03,02,4.70
2020,04,11,03,03,4.70
2020,04,11,03,04,4.60
2020,04,11,03,05,4.60
2020,04,11,03,06,4.60
2020,04,11,03,07,4.60
2020,04,11,03,08,4.60
2020,04,11,03,09,4.50
2020,04,11,03,10,4.50
2020,04,11,03,11,4.50
2020,04,11,03,12,4.50
2020,04,11,03,13,4.50
2020,04,11,03,14,4.40
2020,04,11,03,15,4.40
2020,04,11,03,16,4.40
2020,04,11,03,17,4.40
2020,04,11,03,18,4.40
2020,04,11,03,19,4.40
2020,04,11,03,20,4.40
2020,04,11,03,21,4.40
2020,04,11,03,22,4.40
2020,04,11,03,23,4.40
2020,04,11,03,24,4.30
2020,04,11,03,25,4.30
2020,04,11,03,26,4.30
2020,04,11,03,27,4.30
2020,04,11,03,28,4.30
2020,04,11,03,29,4.30
2020,04,11,03,30,4.30
2020,04,11,03,31,4.30
2020,04,11,03,32,4.20
2020,04,11,03,33,4.20
2020,04,11,03,34,4.20
2020,04,11,03,35,4.20
2020,04,11,03,36,4.20
2020,04,11,03,37,4.20
2020,04,11,03,38,4.20
2020,04,11,03,39,4.20
2020,04,11,03,40,4.20
2020,04,11,03,41,4.20
2020,04,11,03,42,4.20
2020,04,11,03,43,4.20
2020,04,11,03,44,4.20
2020,04,11,03,45,4.20
2020,04,11,03,46,4.20
2020,04,11,03,47,4.20
2020,04,11,03,48,4.20
2020,04,11,03,49,4.10
2020,04,11,03,50,4.10
2020,04,11,03,51,4.10
2020,04,11,03,52,4.10
2020,04,11,03,53,4.00
2020,04,11,03,54,4.00
2020,04,11,03,55,3.90
2020,04,11,03,56,3.90
2020,04,11,03,57,3.90
2020,04,11,03,58,3.90
2020,04,11,03,59,3.90
2020,04,11,04,00,3.90
2020,04,11,04,01,3.90
2020,04,11,04,02,3.90
2020,04,11,04,03,3.90
2020,04,11,04,04,3.90
2020,04,11,04,05,3.90
2020,04,11,04,06,3.90
2020,04,11,04,07,3.90
2020,04,11,04,08,3.90
2020,04,11,04,09,3.90
2020,04,11,04,10,3.80
2020,04,11,04,11,3.80
2020,04,11,04,12,3.80
2020,04,11,04,13,3.80
2020,04,11,04,14,3.80
2020,04,11,04,15,3.80
2020,04,11,04,16,3.80
2020,04,11,04,17,3.80
2020,04,11,04,18,3.80
2020,04,11,04,19,3.80
2020,04,11,04,20,3.80
2020,04,11,04,21,3.80
2020,04,11,04,22,3.80
2020,04,11,04,23,3.80
2020,04,11,04,24,3.80
2020,04,11,04,25,3.80
2020,04,11,04,26,3.70
2020,04,11,04,27,3.70
2020,04,11,04,28,3.70
2020,04,11,04,29,3.70
2020,04,11,04,30,3.70
2020,04,11,04,31,3.70
2020,04,11,04,32,3.70
2020,04,11,04,33,3.60
2020,04,11,04,34,3.60
2020,04,11,04,35,3.60
2020,04,11,04,36,3.60
2020,04,11,04,37,3.60
2020,04,11,04,38,3.60
2020,04,11,04,39,3.50
2020,04,11,04,40,3.50
2020,04,11,04,41,3.50
2020,04,11,04,42,3.50
2020,04,11,04,43,3.50
2020,04,11,04,44,3.50
2020,04,11,04,45,3.50
2020,04,11,04,46,3.50
2020,04,11,04,47,3.50
2020,04,11,04,48,3.60
2020,04,11,04,49,3.60
2020,04,11,04,50,3.60
2020,04,11,04,51,3.60
2020,04,11,04,52,3.50
2020,04,11,04,53,3.50
2020,04,11,04,54,3.50
2020,04,11,04,55,3.50
2020,04,11,04,56,3.50
2020,04,11,04,57,3.50
2020,04,11,04,58,3.50
2020,04,11,04,59,3.50
2020,04,11,05,00,3.50
2020,04,11,05,01,3.50
2020,04,11,05,02,3.40
2020,04,11,05,03,3.40
2020,04,11,05,04,3.40
2020,04,11,05,05,3.30
2020,04,11,05,06,3.30
2020,04,11,05,07,3.30
2020,04,11,05,08,3.20
2020,04,11,05,09,3.20
2020,04,11,05,10,3.20
2020,04,11,05,11,3.30
2020,04,11,05,12,3.30
2020,04,11,05,13,3.30
2020,04,11,05,14,3.30
2020,04,11,05,15,3.30
2020,04,11,05,16,3.40
2020,04,11,05,17,3.40
2020,04,11,05,18,3.50
2020,04,11,05,19,3.60
2020,04,11,05,20,3.70
2020,04,11,05,21,3.70
2020,04,11,05,22,3.80
2020,04,11,05,23,3.80
2020,04,11,05,24,3.80
2020,04,11,05,25,3.80
2020,04,11,05,26,3.80
2020,04,11,05,27,3.80
2020,04,11,05,28,3.80
2020,04,11,05,29,3.80
2020,04,11,05,30,3.80
2020,04,11,05,31,3.80
2020,04,11,05,32,3.80
2020,04,11,05,33,3.80
2020,04,11,05,34,3.80
2020,04,11,05,35,3.80
2020,04,11,05,36,3.80
2020,04,11,05,37,3.80
2020,04,11,05,38,3.80
2020,04,11,05,39,3.80
2020,04,11,05,40,3.80
2020,04,11,05,41,3.80
2020,04,11,05,42,3.80
2020,04,11,05,43,3.70
2020,04,11,05,44,3.70
2020,04,11,05,45,3.70
2020,04,11,05,46,3.60
2020,04,11,05,47,3.60
2020,04,11,05,48,3.60
2020,04,11,05,49,3.60
2020,04,11,05,50,3.60
2020,04,11,05,51,3.60
2020,04,11,05,52,3.60
2020,04,11,05,53,3.60
2020,04,11,05,54,3.60
2020,04,11,05,55,3.60
2020,04,11,05,56,3.60
2020,04,11,05,57,3.50
2020,04,11,05,58,3.50
2020,04,11,05,59,3.50
2020,04,11,06,00,3.50
2020,04,11,06,01,3.50
2020,04,11,06,02,3.50
2020,04,11,06,03,3.50
2020,04,11,06,04,3.50
2020,04,11,06,05,3.50
2020,04,11,06,06,3.40
2020,04,11,06,07,3.40
2020,04,11,06,08,3.40
2020,04,11,06,09,3.40
2020,04,11,06,10,3.40
2020,04,11,06,11,3.40
2020,04,11,06,12,3.40
2020,04,11,06,13,3.40
2020,04,11,06,14,3.30
2020,04,11,06,15,3.30
2020,04,11,06,16,3.30
2020,04,11,06,17,3.30
2020,04,11,06,18,3.30
2020,04,11,06,19,3.40
2020,04,11,06,20,3.40
2020,04,11,06,21,3.40
2020,04,11,06,22,3.40
2020,04,11,06,23,3.40
2020,04,11,06,24,3.40
2020,04,11,06,25,3.40
2020,04,11,06,26,3.40
2020,04,11,06,27,3.40
2020,04,11,06,28,3.40
2020,04,11,06,29,3.30
2020,04,11,06,30,3.30
2020,04,11,06,31,3.30
2020,04,11,06,32,3.30
2020,04,11,06,33,3.30
2020,04,11,06,34,3.30
2020,04,11,06,35,3.20
2020,04,11,06,36,3.20
2020,04,11,06,37,3.20
2020,04,11,06,38,3.20
2020,04,11,06,39,3.20
2020,04,11,06,40,3.20
2020,04,11,06,41,3.30
2020,04,11,06,42,3.30
2020,04,11,06,43,3.30
2020,04,11,06,44,3.30
2020,04,11,06,45,3.30
2020,04,11,06,46,3.20
2020,04,11,06,47,3.20
2020,04,11,06,48,3.20
2020,04,11,06,49,3.20
2020,04,11,06,50,3.30
2020,04,11,06,51,3.30
2020,04,11,06,52,3.30
2020,04,11,06,53,3.30
2020,04,11,06,54,3.30
2020,04,11,06,55,3.30
2020,04,11,06,56,3.30
2020,04,11,06,57,3.30
2020,04,11,06,58,3.30
2020,04,11,06,59,3.30
2020,04,11,07,00,3.30
2020,04,11,07,01,3.30
2020,04,11,07,02,3.30
2020,04,11,07,03,3.30
2020,04,11,07,04,3.30
2020,04,11,07,05,3.20
2020,04,11,07,06,3.20
2020,04,11,07,07,3.20
2020,04,11,07,08,3.10
2020,04,11,07,09,3.10
2020,04,11,07,10,3.10
2020,04,11,07,11,3.10
2020,04,11,07,12,3.10
2020,04,11,07,13,3.20
2020,04,11,07,14,3.20
2020,04,11,07,15,3.20
2020,04,11,07,16,3.20
2020,04,11,07,17,3.20
2020,04,11,07,18,3.20
2020,04,11,07,19,3.20
2020,04,11,07,20,3.20
2020,04,11,07,21,3.10
2020,04,11,07,22,3.10
2020,04,11,07,23,3.10
2020,04,11,07,24,3.10
2020,04,11,07,25,3.10
2020,04,11,07,26,3.20
2020,04,11,07,27,3.20
2020,04,11,07,28,3.20
2020,04,11,07,29,3.20
2020,04,11,07,30,3.30
2020,04,11,07,31,3.30
2020,04,11,07,32,3.40
2020,04,11,07,33,3.40
2020,04,11,07,34,3.40
2020,04,11,07,35,3.40
2020,04,11,07,36,3.40
2020,04,11,07,37,3.50
2020,04,11,07,38,3.50
2020,04,11,07,39,3.50
2020,04,11,07,40,3.40
2020,04,11,07,41,3.30
2020,04,11,07,42,3.20
2020,04,11,07,43,3.20
2020,04,11,07,44,3.20
2020,04,11,07,45,3.20
2020,04,11,07,46,3.20
2020,04,11,07,47,3.20
2020,04,11,07,48,3.30
2020,04,11,07,49,3.30
2020,04,11,07,50,3.30
2020,04,11,07,51,3.40
2020,04,11,07,52,3.50
2020,04,11,07,53,3.50
2020,04,11,07,54,3.60
2020,04,11,07,55,3.60
2020,04,11,07,56,3.60
2020,04,11,07,57,3.70
2020,04,11,07,58,3.70
2020,04,11,07,59,3.80
2020,04,11,08,00,3.80
2020,04,11,08,01,3.90
2020,04,11,08,02,3.90
2020,04,11,08,03,4.00
2020,04,11,08,04,4.00
2020,04,11,08,05,4.10
2020,04,11,08,06,4.20
2020,04,11,08,07,4.20
2020,04,11,08,08,4.30
2020,04,11,08,09,4.40
2020,04,11,08,10,4.40
2020,04,11,08,11,4.60
2020,04,11,08,12,4.70
2020,04,11,08,13,4.80
2020,04,11,08,14,4.90
2020,04,11,08,15,4.90
2020,04,11,08,16,4.90
2020,04,11,08,17,5.00
2020,04,11,08,18,5.00
2020,04,11,08,19,5.00
2020,04,11,08,20,5.10
2020,04,11,08,21,5.10
2020,04,11,08,22,5.10
2020,04,11,08,23,5.10
2020,04,11,08,24,5.20
2020,04,11,08,25,5.20
2020,04,11,08,26,5.20
2020,04,11,08,27,5.30
2020,04,11,08,28,5.30
2020,04,11,08,29,5.30
2020,04,11,08,30,5.30
2020,04,11,08,31,5.40
2020,04,11,08,32,5.40
2020,04,11,08,33,5.40
2020,04,11,08,34,5.50
2020,04,11,08,35,5.60
2020,04,11,08,36,5.60
2020,04,11,08,37,5.70
2020,04,11,08,38,5.80
2020,04,11,08,39,5.80
2020,04,11,08,40,5.80
2020,04,11,08,41,5.80
2020,04,11,08,42,5.90
2020,04,11,08,43,5.90
2020,04,11,08,44,5.90
2020,04,11,08,45,5.90
2020,04,11,08,46,5.90
2020,04,11,08,47,5.90
2020,04,11,08,48,6.00
2020,04,11,08,49,6.10
2020,04,11,08,50,6.10
2020,04,11,08,51,6.20
2020,04,11,08,52,6.30
2020,04,11,08,53,6.30
2020,04,11,08,54,6.40
2020,04,11,08,55,6.40
2020,04,11,08,56,6.40
2020,04,11,08,57,6.50
2020,04,11,08,58,6.60
2020,04,11,08,59,6.60
2020,04,11,09,00,6.70
2020,04,11,09,01,6.70
2020,04,11,09,02,6.80
2020,04,11,09,03,6.80
2020,04,11,09,04,6.90
2020,04,11,09,05,7.00
2020,04,11,09,06,7.10
2020,04,11,09,07,7.20
2020,04,11,09,08,7.20
2020,04,11,09,09,7.30
2020,04,11,09,10,7.30
2020,04,11,09,11,7.40
2020,04,11,09,12,7.40
2020,04,11,09,13,7.50
2020,04,11,09,14,7.50
2020,04,11,09,15,7.60
2020,04,11,09,16,7.60
2020,04,11,09,17,7.70
2020,04,11,09,18,7.70
2020,04,11,09,19,7.80
2020,04,11,09,20,7.80
2020,04,11,09,21,7.90
2020,04,11,09,22,7.90
2020,04,11,09,23,7.90
2020,04,11,09,24,7.90
2020,04,11,09,25,7.90
2020,04,11,09,26,7.90
2020,04,11,09,27,7.90
2020,04,11,09,28,7.90
2020,04,11,09,29,7.90
2020,04,11,09,30,7.90
2020,04,11,09,31,7.90
2020,04,11,09,32,7.90
2020,04,11,09,33,7.90
2020,04,11,09,34,7.90
2020,04,11,09,35,8.00
2020,04,11,09,36,8.00
2020,04,11,09,37,8.00
2020,04,11,09,38,8.00
2020,04,11,09,39,8.10
2020,04,11,09,40,8.20
2020,04,11,09,41,8.30
2020,04,11,09,42,8.30
2020,04,11,09,43,8.30
2020,04,11,09,44,8.30
2020,04,11,09,45,8.30
2020,04,11,09,46,8.30
2020,04,11,09,47,8.30
2020,04,11,09,48,8.30
2020,04,11,09,49,8.30
2020,04,11,09,50,8.30
2020,04,11,09,51,8.20
2020,04,11,09,52,8.20
2020,04,11,09,53,8.20
2020,04,11,09,54,8.20
2020,04,11,09,55,8.20
2020,04,11,09,56,8.20
2020,04,11,09,57,8.30
2020,04,11,09,58,8.30
2020,04,11,09,59,8.30
2020,04,11,10,00,8.30
2020,04,11,10,01,8.40
2020,04,11,10,02,8.40
2020,04,11,10,03,8.40
2020,04,11,10,04,8.40
2020,04,11,10,05,8.40
2020,04,11,10,06,8.40
2020,04,11,10,07,8.40
2020,04,11,10,08,8.50
2020,04,11,10,09,8.50
2020,04,11,10,10,8.50
2020,04,11,10,11,8.50
2020,04,11,10,12,8.60
2020,04,11,10,13,8.60
2020,04,11,10,14,8.70
2020,04,11,10,15,8.70
2020,04,11,10,16,8.80
2020,04,11,10,17,8.80
2020,04,11,10,18,8.80
2020,04,11,10,19,8.90
2020,04,11,10,20,9.00
2020,04,11,10,21,9.00
2020,04,11,10,22,9.10
2020,04,11,10,23,9.10
2020,04,11,10,24,9.10
2020,04,11,10,25,9.10
2020,04,11,10,26,9.10
2020,04,11,10,27,9.20
2020,04,11,10,28,9.20
2020,04,11,10,29,9.30
2020,04,11,10,30,9.30
2020,04,11,10,31,9.40
2020,04,11,10,32,9.40
2020,04,11,10,33,9.50
2020,04,11,10,34,9.60
2020,04,11,10,35,9.70
2020,04,11,10,36,9.70
2020,04,11,10,37,9.80
2020,04,11,10,38,9.90
2020,04,11,10,39,9.90
2020,04,11,10,40,10.00
2020,04,11,10,41,10.10
2020,04,11,10,42,10.20
2020,04,11,10,43,10.20
2020,04,11,10,44,10.30
2020,04,11,10,45,10.30
2020,04,11,10,46,10.40
2020,04,11,10,47,10.50
2020,04,11,10,48,10.60
2020,04,11,10,49,10.70
2020,04,11,10,50,10.70
2020,04,11,10,51,10.80
2020,04,11,10,52,10.80
2020,04,11,10,53,10.80
2020,04,11,10,54,10.90
2020,04,11,10,55,11.00
2020,04,11,10,56,11.10
2020,04,11,10,57,11.20
2020,04,11,10,58,11.30
2020,04,11,10,59,11.30
2020,04,11,11,00,11.30
2020,04,11,11,01,11.30
2020,04,11,11,02,11.20
2020,04,11,11,03,11.20
2020,04,11,11,04,11.20
2020,04,11,11,05,11.30
2020,04,11,11,06,11.40
2020,04,11,11,07,11.60
2020,04,11,11,08,11.80
2020,04,11,11,09,11.90
2020,04,11,11,10,12.00
2020,04,11,11,11,12.10
2020,04,11,11,12,12.10
2020,04,11,11,13,12.10
2020,04,11,11,14,12.20
2020,04,11,11,15,12.30
2020,04,11,11,16,12.40
2020,04,11,11,17,12.40
2020,04,11,11,18,12.40
2020,04,11,11,19,12.40
2020,04,11,11,20,12.40
2020,04,11,11,21,12.50
2020,04,11,11,22,12.60
2020,04,11,11,23,12.70
2020,04,11,11,24,12.80
2020,04,11,11,25,12.80
2020,04,11,11,26,12.80
2020,04,11,11,27,12.80
2020,04,11,11,28,12.80
2020,04,11,11,29,12.80
2020,04,11,11,30,12.90
2020,04,11,11,31,12.90
2020,04,11,11,32,12.90
2020,04,11,11,33,12.90
2020,04,11,11,34,12.80
2020,04,11,11,35,12.80
2020,04,11,11,36,12.80
2020,04,11,11,37,12.80
2020,04,11,11,38,12.80
2020,04,11,11,39,12.80
2020,04,11,11,40,12.90
2020,04,11,11,41,12.90
2020,04,11,11,42,13.00
2020,04,11,11,43,13.10
2020,04,11,11,44,13.10
2020,04,11,11,45,13.20
2020,04,11,11,46,13.20
2020,04,11,11,47,13.30
2020,04,11,11,48,13.40
2020,04,11,11,49,13.50
2020,04,11,11,50,13.50
2020,04,11,11,51,13.50
2020,04,11,11,52,13.50
2020,04,11,11,53,13.40
2020,04,11,11,54,13.40
2020,04,11,11,55,13.40
2020,04,11,11,56,13.40
2020,04,11,11,57,13.40
2020,04,11,11,58,13.40
2020,04,11,11,59,13.40
2020,04,11,12,00,13.40
2020,04,11,12,01,13.40
2020,04,11,12,02,13.40
2020,04,11,12,03,13.50
2020,04,11,12,04,13.50
2020,04,11,12,05,13.60
2020,04,11,12,06,13.60
2020,04,11,12,07,13.60
2020,04,11,12,08,13.60
2020,04,11,12,09,13.60
2020,04,11,12,10,13.60
2020,04,11,12,11,13.60
2020,04,11,12,12,13.60
2020,04,11,12,13,13.60
2020,04,11,12,14,13.70
2020,04,11,12,15,13.70
2020,04,11,12,16,13.70
2020,04,11,12,17,13.70
2020,04,11,12,18,13.70
2020,04,11,12,19,13.70
2020,04,11,12,20,13.70
2020,04,11,12,21,13.80
2020,04,11,12,22,13.80
2020,04,11,12,23,13.80
2020,04,11,12,24,13.80
2020,04,11,12,25,13.80
2020,04,11,12,26,13.70
2020,04,11,12,27,13.70
2020,04,11,12,28,13.80
2020,04,11,12,29,13.80
2020,04,11,12,30,13.80
2020,04,11,12,31,13.80
2020,04,11,12,32,13.90
2020,04,11,12,33,13.90
2020,04,11,12,34,14.00
2020,04,11,12,35,14.00
2020,04,11,12,36,14.00
2020,04,11,12,37,14.00
2020,04,11,12,38,14.10
2020,04,11,12,39,14.20
2020,04,11,12,40,14.30
2020,04,11,12,41,14.30
2020,04,11,12,42,14.40
2020,04,11,12,43,14.40
2020,04,11,12,44,14.40
2020,04,11,12,45,14.40
2020,04,11,12,46,14.40
2020,04,11,12,47,14.40
2020,04,11,12,48,14.40
2020,04,11,12,49,14.40
2020,04,11,12,50,14.40
2020,04,11,12,51,14.40
2020,04,11,12,52,14.50
2020,04,11,12,53,14.50
2020,04,11,12,54,14.60
2020,04,11,12,55,14.70
2020,04,11,12,56,14.70
2020,04,11,12,57,14.70
2020,04,11,12,58,14.70
2020,04,11,12,59,14.70
2020,04,11,13,00,14.70
2020,04,11,13,01,14.70
2020,04,11,13,02,14.70
2020,04,11,13,03,14.70
2020,04,11,13,04,14.70
2020,04,11,13,05,14.70
2020,04,11,13,06,14.70
2020,04,11,13,07,14.70
2020,04,11,13,08,14.70
2020,04,11,13,09,14.70
2020,04,11,13,10,14.60
2020,04,11,13,11,14.60
2020,04,11,13,12,14.60
2020,04,11,13,13,14.50
2020,04,11,13,14,14.50
2020,04,11,13,15,14.50
2020,04,11,13,16,14.50
2020,04,11,13,17,14.50
2020,04,11,13,18,14.60
2020,04,11,13,19,14.60
2020,04,11,13,20,14.60
2020,04,11,13,21,14.70
2020,04,11,13,22,14.70
2020,04,11,13,23,14.80
2020,04,11,13,24,14.80
2020,04,11,13,25,14.90
2020,04,11,13,26,15.00
2020,04,11,13,27,15.10
2020,04,11,13,28,15.10
2020,04,11,13,29,15.10
2020,04,11,13,30,15.10
2020,04,11,13,31,15.10
2020,04,11,13,32,15.10
2020,04,11,13,33,15.10
2020,04,11,13,34,15.10
2020,04,11,13,35,15.10
2020,04,11,13,36,15.10
2020,04,11,13,37,15.10
2020,04,11,13,38,15.10
2020,04,11,13,39,15.00
2020,04,11,13,40,15.10
2020,04,11,13,41,15.10
2020,04,11,13,42,15.10
2020,04,11,13,43,15.20
2020,04,11,13,44,15.20
2020,04,11,13,45,15.20
2020,04,11,13,46,15.10
2020,04,11,13,47,15.10
2020,04,11,13,48,15.00
2020,04,11,13,49,15.00
2020,04,11,13,50,14.90
2020,04,11,13,51,14.90
2020,04,11,13,52,14.90
2020,04,11,13,53,15.00
2020,04,11,13,54,15.00
2020,04,11,13,55,15.00
2020,04,11,13,56,15.00
2020,04,11,13,57,15.10
2020,04,11,13,58,15.10
2020,04,11,13,59,15.20
2020,04,11,14,00,15.20
2020,04,11,14,01,15.20
2020,04,11,14,02,15.10
2020,04,11,14,03,15.10
2020,04,11,14,04,15.10
2020,04,11,14,05,15.10
2020,04,11,14,06,15.00
2020,04,11,14,07,15.00
2020,04,11,14,08,14.90
2020,04,11,14,09,14.90
2020,04,11,14,10,14.90
2020,04,11,14,11,14.90
2020,04,11,14,12,14.90
2020,04,11,14,13,15.00
2020,04,11,14,14,15.00
2020,04,11,14,15,15.00
2020,04,11,14,16,15.00
2020,04,11,14,17,15.00
2020,04,11,14,18,14.90
2020,04,11,14,19,14.90
2020,04,11,14,20,14.80
2020,04,11,14,21,14.80
2020,04,11,14,22,14.80
2020,04,11,14,23,14.70
2020,04,11,14,24,14.70
2020,04,11,14,25,14.70
2020,04,11,14,26,14.70
2020,04,11,14,27,14.70
2020,04,11,14,28,14.80
2020,04,11,14,29,14.80
2020,04,11,14,30,14.80
2020,04,11,14,31,14.90
2020,04,11,14,32,15.00
2020,04,11,14,33,15.00
2020,04,11,14,34,15.10
2020,04,11,14,35,15.20
2020,04,11,14,36,15.20
2020,04,11,14,37,15.10
2020,04,11,14,38,15.00
2020,04,11,14,39,14.90
2020,04,11,14,40,14.90
2020,04,11,14,41,14.80
2020,04,11,14,42,14.80
2020,04,11,14,43,14.80
2020,04,11,14,44,14.80
2020,04,11,14,45,14.90
2020,04,11,14,46,14.90
2020,04,11,14,47,15.00
2020,04,11,14,48,15.10
2020,04,11,14,49,15.10
2020,04,11,14,50,15.10
2020,04,11,14,51,15.10
2020,04,11,14,52,15.10
2020,04,11,14,53,15.20
2020,04,11,14,54,15.20
2020,04,11,14,55,15.30
2020,04,11,14,56,15.30
2020,04,11,14,57,15.30
2020,04,11,14,58,15.40
2020,04,11,14,59,15.40
2020,04,11,15,00,15.40
2020,04,11,15,01,15.40
2020,04,11,15,02,15.40
2020,04,11,15,03,15.50
2020,04,11,15,04,15.50
2020,04,11,15,05,15.60
2020,04,11,15,06,15.60
2020,04,11,15,07,15.60
2020,04,11,15,08,15.60
2020,04,11,15,09,15.60
2020,04,11,15,10,15.60
2020,04,11,15,11,15.60
2020,04,11,15,12,15.60
2020,04,11,15,13,15.60
2020,04,11,15,14,15.50
2020,04,11,15,15,15.50
2020,04,11,15,16,15.50
2020,04,11,15,17,15.50
2020,04,11,15,18,15.40
2020,04,11,15,19,15.40
2020,04,11,15,20,15.50
2020,04,11,15,21,15.50
2020,04,11,15,22,15.60
2020,04,11,15,23,15.60
2020,04,11,15,24,15.60
2020,04,11,15,25,15.60
2020,04,11,15,26,15.50
2020,04,11,15,27,15.50
2020,04,11,15,28,15.50
2020,04,11,15,29,15.50
2020,04,11,15,30,15.60
2020,04,11,15,31,15.60
2020,04,11,15,32,15.60
2020,04,11,15,33,15.70
2020,04,11,15,34,15.70
2020,04,11,15,35,15.60
2020,04,11,15,36,15.60
2020,04,11,15,37,15.60
2020,04,11,15,38,15.60
2020,04,11,15,39,15.50
2020,04,11,15,40,15.50
2020,04,11,15,41,15.40
2020,04,11,15,42,15.30
2020,04,11,15,43,15.20
2020,04,11,15,44,15.20
2020,04,11,15,45,15.10
2020,04,11,15,46,15.10
2020,04,11,15,47,15.10
2020,04,11,15,48,15.10
2020,04,11,15,49,15.20
2020,04,11,15,50,15.20
2020,04,11,15,51,15.30
2020,04,11,15,52,15.30
2020,04,11,15,53,15.30
2020,04,11,15,54,15.20
2020,04,11,15,55,15.20
2020,04,11,15,56,15.20
2020,04,11,15,57,15.20
2020,04,11,15,58,15.20
2020,04,11,15,59,15.20
2020,04,11,16,00,15.20
2020,04,11,16,01,15.20
2020,04,11,16,02,15.20
2020,04,11,16,03,15.20
2020,04,11,16,04,15.20
2020,04,11,16,05,15.20
2020,04,11,16,06,15.30
2020,04,11,16,07,15.30
2020,04,11,16,08,15.30
2020,04,11,16,09,15.30
2020,04,11,16,10,15.30
2020,04,11,16,11,15.30
2020,04,11,16,12,15.30
2020,04,11,16,13,15.30
2020,04,11,16,14,15.30
2020,04,11,16,15,15.30
2020,04,11,16,16,15.30
2020,04,11,16,17,15.40
2020,04,11,16,18,15.50
2020,04,11,16,19,15.50
2020,04,11,16,20,15.60
2020,04,11,16,21,15.60
2020,04,11,16,22,15.60
2020,04,11,16,23,15.60
2020,04,11,16,24,15.70
2020,04,11,16,25,15.70
2020,04,11,16,26,15.70
2020,04,11,16,27,15.70
2020,04,11,16,28,15.70
2020,04,11,16,29,15.70
2020,04,11,16,30,15.70
2020,04,11,16,31,15.70
2020,04,11,16,32,15.70
2020,04,11,16,33,15.70
2020,04,11,16,34,15.70
2020,04,11,16,35,15.70
2020,04,11,16,36,15.70
2020,04,11,16,37,15.60
2020,04,11,16,38,15.60
2020,04,11,16,39,15.60
2020,04,11,16,40,15.60
2020,04,11,16,41,15.60
2020,04,11,16,42,15.60
2020,04,11,16,43,15.60
2020,04,11,16,44,15.60
2020,04,11,16,45,15.70
2020,04,11,16,46,15.70
2020,04,11,16,47,15.80
2020,04,11,16,48,15.90
2020,04,11,16,49,16.00
2020,04,11,16,50,16.00
2020,04,11,16,51,16.00
2020,04,11,16,52,16.00
2020,04,11,16,53,16.00
2020,04,11,16,54,16.00
2020,04,11,16,55,16.00
2020,04,11,16,56,16.00
2020,04,11,16,57,15.90
2020,04,11,16,58,15.80
2020,04,11,16,59,15.70
2020,04,11,17,00,15.70
2020,04,11,17,01,15.70
2020,04,11,17,02,15.80
2020,04,11,17,03,15.80
2020,04,11,17,04,15.80
2020,04,11,17,05,15.70
2020,04,11,17,06,15.60
2020,04,11,17,07,15.60
2020,04,11,17,08,15.60
2020,04,11,17,09,15.60
2020,04,11,17,10,15.70
2020,04,11,17,11,15.80
2020,04,11,17,12,15.90
2020,04,11,17,13,16.00
2020,04,11,17,14,16.10
2020,04,11,17,15,16.20
2020,04,11,17,16,16.30
2020,04,11,17,17,16.30
2020,04,11,17,18,16.30
2020,04,11,17,19,16.30
2020,04,11,17,20,16.30
2020,04,11,17,21,16.30
2020,04,11,17,22,16.30
2020,04,11,17,23,16.20
2020,04,11,17,24,16.20
2020,04,11,17,25,16.30
2020,04,11,17,26,16.30
2020,04,11,17,27,16.30
2020,04,11,17,28,16.30
2020,04,11,17,29,16.30
2020,04,11,17,30,16.30
2020,04,11,17,31,16.20
2020,04,11,17,32,16.20
2020,04,11,17,33,16.10
2020,04,11,17,34,16.00
2020,04,11,17,35,15.90
2020,04,11,17,36,15.80
2020,04,11,17,37,15.70
2020,04,11,17,38,15.60
2020,04,11,17,39,15.60
2020,04,11,17,40,15.50
2020,04,11,17,41,15.40
2020,04,11,17,42,15.40
2020,04,11,17,43,15.40
2020,04,11,17,44,15.40
2020,04,11,17,45,15.30
2020,04,11,17,46,15.30
2020,04,11,17,47,15.30